Location: The Saddle
(36.8333°N, 80.3417°W)
Time: 03:25:34
(UTC-05:00)

Transit 2A - All Passes

Search period start: 28 January 2022 00:00
Search period end: 07 February 2022 00:00
Orbit: 591 x 966 km, 66.7° (Epoch: 27 January)

Date Brightness Start Highest point End Pass type
(mag) Time Alt. Az. Time Alt. Az. Time Alt. Az.
28 Jan - 09:35:08 10° SSE 09:40:05 27° ESE 09:45:13 10° NE daylight
28 Jan - 11:17:04 10° SW 11:22:59 49° WNW 11:29:11 10° NNE daylight
28 Jan - 13:07:20 10° NW 13:07:50 10° NW 13:08:20 10° NNW daylight
28 Jan - 18:25:09 10° N 18:28:45 16° NE 18:32:11 10° E visible
28 Jan - 20:06:57 10° NNW 20:12:54 87° WSW 20:18:14 10° SSE visible
29 Jan - 09:02:08 10° SE 09:06:05 18° ESE 09:10:09 10° ENE daylight
29 Jan - 10:42:33 10° SW 10:48:39 69° WNW 10:55:02 10° NNE daylight
29 Jan - 12:30:01 10° WNW 12:33:07 14° NW 12:36:15 10° NNW daylight
29 Jan - 17:52:00 10° NNE 17:54:05 12° NE 17:56:06 10° ENE daylight
29 Jan - 19:32:43 10° NNW 19:38:39 64° ENE 19:43:57 10° SE visible
29 Jan - 21:17:49 10° WNW 21:21:04 16° WSW 21:24:10 10° SW visible
30 Jan - 08:30:13 10° ESE 08:32:10 12° E 08:34:08 10° E daylight
30 Jan - 10:08:17 10° SSW 10:14:24 85° ESE 10:20:49 10° NNE daylight
30 Jan - 11:54:13 10° W 11:58:28 19° NW 12:02:48 10° N daylight
30 Jan - 18:58:37 10° NNW 19:04:18 44° NE 19:09:26 10° SE visible
30 Jan - 20:42:37 10° NW 20:47:08 24° WSW 20:51:17 10° SSW visible
31 Jan - 09:34:14 10° S 09:40:12 60° ESE 09:46:29 10° NE daylight
31 Jan - 11:18:53 10° WSW 11:23:54 25° NW 11:29:04 10° N daylight
31 Jan - 18:24:37 10° N 18:29:52 31° NE 18:34:41 10° ESE visible
31 Jan - 20:07:52 10° NW 20:13:07 36° WSW 20:17:52 10° S visible
01 Feb - 09:00:25 10° S 09:06:05 41° ESE 09:12:00 10° NE daylight
01 Feb - 10:43:51 10° WSW 10:49:25 34° NW 10:55:10 10° N daylight
01 Feb - 17:50:45 10° N 17:55:22 23° NE 17:59:40 10° E daylight
01 Feb - 19:33:20 10° NW 19:39:02 54° WSW 19:44:07 10° S visible
02 Feb - 08:26:55 10° SSE 08:32:02 29° ESE 08:37:20 10° NE daylight
02 Feb - 10:09:06 10° SW 10:15:00 46° WNW 10:21:09 10° NNE daylight
02 Feb - 17:17:04 10° N 17:20:47 17° NE 17:24:19 10° E daylight
02 Feb - 18:58:58 10° NNW 19:04:52 82° WSW 19:10:07 10° SSE visible
03 Feb - 07:53:48 10° SSE 07:58:01 20° ESE 08:02:22 10° ENE daylight
03 Feb - 09:34:33 10° SW 09:40:40 65° WNW 09:47:02 10° NNE daylight
03 Feb - 11:22:20 10° WNW 11:25:11 13° NW 11:28:03 10° NNW daylight
03 Feb - 16:43:49 10° NNE 16:46:08 12° NE 16:48:22 10° ENE daylight
03 Feb - 18:24:44 10° NNW 18:30:37 69° ENE 18:35:52 10° SE visible
03 Feb - 20:10:09 10° WNW 20:12:58 14° W 20:15:39 10° SW visible
04 Feb - 07:21:31 10° SE 07:24:05 13° E 07:26:40 10° ENE daylight
04 Feb - 09:00:13 10° SSW 09:06:23 90° W 09:12:49 10° NNE daylight
04 Feb - 10:46:25 10° W 10:50:32 18° NW 10:54:41 10° N daylight
04 Feb - 17:50:36 10° NNW 17:56:17 47° ENE 18:01:23 10° SE daylight
04 Feb - 19:34:47 10° NW 19:39:02 22° WSW 19:42:57 10° SSW visible
05 Feb - 08:26:07 10° SSW 08:32:11 65° ESE 08:38:31 10° NNE daylight
05 Feb - 10:11:01 10° W 10:15:57 24° NW 10:20:59 10° N daylight
05 Feb - 17:16:35 10° N 17:21:52 33° NE 17:26:41 10° ESE daylight
05 Feb - 18:59:57 10° NW 19:05:01 33° WSW 19:09:38 10° S visible
06 Feb - 07:52:16 10° S 07:58:03 45° ESE 08:04:04 10° NE daylight
06 Feb - 09:35:57 10° WSW 09:41:27 32° NW 09:47:06 10° N daylight
06 Feb - 16:42:41 10° N 16:47:23 24° NE 16:51:43 10° ESE daylight
06 Feb - 18:25:24 10° NW 18:30:57 50° WSW 18:35:56 10° S visible
